This demonstration page uses our WeatherBlox Daily Observations layout. Learn more.

Left ArrowRight Arrow

Hourly Observations for August 10, 2020

Temp ( °F °C ) Dew Point ( °F °C ) Humidity (%) Winds ( mph kmh ) Pressure ( in mb ) Visibility ( mi km ) Precip ( " mm )
12:15 am 00:15 Clear 69 20.8 67 19.3 91 91 SSW 7 11 30.05 1018 10 16 0.00 0.00
12:35 am 00:35 Clear 70 21.1 68 19.8 92 92 S 3 6 30.05 1018 10 16 0.00 0.00
12:55 am 00:55 Clear 67 19.5 66 18.9 96 96 S 5 7 30.06 1018 10 16 0.00 0.00
1:15 am 01:15 Clear 67 19.4 66 18.7 96 96 SSE 5 7 30.05 1018 10 16 0.00 0.00
1:35 am 01:35 Mostly Cloudy 68 19.8 66 19.1 96 96 SSE 5 7 30.05 1018 10 16 0.00 0.00
1:55 am 01:55 Mostly Cloudy 68 20.2 67 19.6 96 96 SSW 3 6 30.05 1017 10 16 0.00 0.00
2:15 am 02:15 Partly Cloudy 68 20.2 67 19.5 96 96 WSW 3 6 30.06 1018 10 16 0.00 0.00
2:35 am 02:35 Clear 66 19.1 65 18.6 97 97 S 5 7 30.05 1018 10 16 0.00 0.00
2:55 am 02:55 Partly Cloudy 67 19.5 66 19.1 98 98 SSW 3 6 30.05 1018 10 16 0.00 0.00
3:15 am 03:15 Cloudy 70 21 69 20.4 96 96 SSW 3 6 30.03 1017 10 16 0.00 0.00
3:35 am 03:35 Cloudy 70 21.3 69 20.5 95 95 SSW 3 6 30.03 1017 10 16 0.00 0.00
3:55 am 03:55 Cloudy 70 21 69 20.5 97 97 SSW 3 6 30.04 1017 10 16 0.00 0.00
4:15 am 04:15 Mostly Cloudy 69 20.8 69 20.4 98 98 Calm 30.03 1017 10 16 0.00 0.00
4:35 am 04:35 Cloudy 70 21 69 20.5 97 97 SE 5 7 30.03 1017 10 16 0.00 0.00
4:55 am 04:55 Cloudy with Nearby Thunderstorms 70 21.1 69 20.5 96 96 S 6 9 30.02 1017 10 16 0.00 0.00
5:15 am 05:15 Mostly Cloudy with Nearby Thunderstorms 70 21 69 20.3 96 96 SSW 5 7 30.01 1016 10 16 0.00 0.00
5:35 am 05:35 Mostly Cloudy with Nearby Thunderstorms 70 21.2 69 20.5 96 96 S 6 9 30.00 1016 10 16 0.00 0.00
5:55 am 05:55 Partly Cloudy with Thunderstorms 70 21 69 20.5 97 97 Calm 30.00 1016 10 16 0.00 0.00
6:15 am 06:15 Mostly Cloudy 71 21.4 69 20.8 96 96 SW 6 9 30.00 1016 7 11 0.01 0.25
6:35 am 06:35 Cloudy with Thunderstorms 70 21.3 70 21 98 98 SW 12 19 30.03 1017 3 4 0.15 3.81
6:55 am 06:55 Cloudy with Strong Thunderstorms 70 21.1 69 20.5 96 96 ESE 12 19 29.99 1016 3 5 0.39 9.91
7:15 am 07:15 Cloudy with Thunderstorms 70 21 69 20.5 97 97 NNE 15 24 30.03 1017 4 6 0.21 5.33
7:35 am 07:35 Cloudy with Strong Thunderstorms 69 20.6 68 20.1 97 97 ENE 3 6 30.04 1017 3 4 0.50 12.70
7:55 am 07:55 Mostly Cloudy with Thunderstorms 69 20.4 68 20 98 98 ESE 5 7 30.03 1017 10 16 0.60 15.24
8:15 am 08:15 Mostly Cloudy with Thunderstorms 68 20.2 68 20 99 99 SSE 5 7 30.02 1016 10 16 0.00 0.00
8:35 am 08:35 Mostly Cloudy with Thunderstorms 69 20.5 68 20.1 98 98 SW 6 9 30.03 1017 10 16 0.00 0.00
8:55 am 08:55 Cloudy with Thunderstorms 69 20.5 68 20.2 98 98 SSE 6 9 30.03 1017 10 16 0.01 0.25
9:15 am 09:15 Mostly Cloudy 69 20.6 69 20.3 98 98 SSE 6 9 30.03 1017 10 16 0.00 0.00
9:35 am 09:35 Partly Cloudy with Nearby Thunderstorms 71 21.4 70 21 98 98 SSE 5 7 30.03 1017 10 16 0.00 0.00
9:55 am 09:55 Partly Cloudy 73 22.5 71 21.6 95 95 S 8 13 30.03 1017 10 16 0.00 0.00
10:15 am 10:15 Mostly Cloudy 73 22.6 71 21.7 95 95 S 7 11 30.04 1017 10 16 0.00 0.00
10:35 am 10:35 Mostly Cloudy 74 23.5 72 22.3 93 93 S 6 9 30.01 1016 10 16 0.00 0.00
10:55 am 10:55 Mostly Cloudy 74 23.6 72 22.3 92 92 SSW 9 15 30.01 1016 10 16 0.00 0.00
11:15 am 11:15 Partly Cloudy 75 23.8 73 22.6 93 93 S 7 11 30.01 1016 10 16 0.00 0.00
11:35 am 11:35 Sunny 76 24.4 73 22.8 91 91 S 8 13 30.00 1016 10 16 0.00 0.00
11:55 am 11:55 Sunny 76 24.6 73 22.7 89 89 S 9 15 29.99 1016 10 16 0.00 0.00
12:15 pm 12:15 Sunny 78 25.7 74 23.4 87 87 SSW 10 17 29.99 1015 10 16 0.00 0.00
12:35 pm 12:35 Sunny 79 26.3 74 23.3 84 84 SSW 13 20 29.99 1015 10 16 0.00 0.00
12:55 pm 12:55 Partly Cloudy 80 26.7 74 23.6 83 83 SSW 9 15 29.98 1015 10 16 0.00 0.00
1:15 pm 13:15 Partly Cloudy 80 26.7 74 23.4 82 82 S 9 15 29.97 1015 10 16 0.00 0.00
1:35 pm 13:35 Partly Cloudy 80 26.9 74 23.3 81 81 SSW 9 15 29.96 1015 10 16 0.00 0.00
1:55 pm 13:55 Sunny 81 27.4 74 23.6 80 80 S 8 13 29.95 1014 10 16 0.00 0.00
2:15 pm 14:15 Sunny 82 27.7 74 23.6 78 78 S 9 15 29.94 1014 10 16 0.00 0.00
2:35 pm 14:35 Sunny 83 28.1 75 23.9 78 78 SSW 12 19 29.93 1014 10 16 0.00 0.00
2:55 pm 14:55 Sunny 83 28.3 74 23.4 75 75 S 9 15 29.92 1013 10 16 0.00 0.00
3:15 pm 15:15 Sunny 83 28.5 74 23.6 75 75 SW 10 17 29.92 1013 10 16 0.00 0.00
3:35 pm 15:35 Sunny 84 28.7 76 24.2 77 77 S 9 15 29.91 1013 10 16 0.00 0.00
3:55 pm 15:55 Sunny 84 28.8 76 24.2 76 76 S 12 19 29.89 1012 10 16 0.00 0.00
4:15 pm 16:15 Mostly Cloudy 84 28.9 75 24 75 75 SSW 12 19 29.89 1012 10 16 0.00 0.00
4:35 pm 16:35 Cloudy 83 28.5 75 23.9 76 76 SSW 12 19 29.89 1012 10 16 0.00 0.00
4:55 pm 16:55 Cloudy 85 29.2 76 24.3 75 75 SW 9 15 29.89 1012 10 16 0.00 0.00
5:15 pm 17:15 Partly Cloudy 84 28.8 76 24.4 77 77 SSW 13 20 29.87 1011 10 16 0.00 0.00
5:35 pm 17:35 Sunny 84 28.7 76 24.5 78 78 S 10 17 29.88 1012 10 16 0.00 0.00
5:55 pm 17:55 Partly Cloudy 85 29.2 76 24.6 76 76 SSW 8 13 29.88 1012 10 16 0.00 0.00
6:15 pm 18:15 Mostly Cloudy 84 28.7 76 24.3 77 77 S 8 13 29.87 1011 10 16 0.00 0.00
6:35 pm 18:35 Mostly Cloudy 82 28 76 24.5 81 81 SW 6 9 29.89 1012 10 16 0.00 0.00
6:55 pm 18:55 Partly Cloudy 82 27.5 76 24.4 83 83 SW 5 7 29.88 1012 10 16 0.00 0.00
7:15 pm 19:15 Mostly Cloudy with Nearby Thunderstorms 73 23 66 18.8 77 77 N 21 33 29.96 1014 7 11 0.01 0.25
7:35 pm 19:35 Cloudy 67 19.2 65 18.5 96 96 N 22 35 29.96 1015 3 4 0.36 9.14
7:55 pm 19:55 Cloudy with Thunderstorms 67 19.4 65 18.3 93 93 NNW 13 20 29.96 1015 10 16 0.40 10.16
8:15 pm 20:15 Mostly Cloudy 67 19.6 65 18.4 93 93 N 12 19 29.96 1014 10 16 0.00 0.00
8:35 pm 20:35 Mostly Cloudy with Nearby Thunderstorms 67 19.6 65 18.4 93 93 N 7 11 29.97 1015 10 16 0.03 0.76
8:55 pm 20:55 Cloudy with Rain 67 19.6 65 18.4 93 93 N 3 6 29.98 1015 10 16 0.04 1.02
9:15 pm 21:15 Cloudy with Nearby Thunderstorms 67 19.5 65 18.6 95 95 Calm 29.99 1016 7 11 0.04 1.02
9:35 pm 21:35 Cloudy with Thunderstorms 67 19.2 66 18.8 98 98 ESE 5 7 29.99 1016 10 16 0.07 1.78
9:55 pm 21:55 Mostly Cloudy with Rain 67 19.2 66 18.8 98 98 SE 7 11 29.97 1015 10 16 0.09 2.29
10:15 pm 22:15 Mostly Cloudy with Light Rain 67 19.2 66 18.8 98 98 SE 9 15 29.94 1014 10 16 0.01 0.25
10:35 pm 22:35 Partly Cloudy 67 19.5 66 19 97 97 S 13 20 29.93 1013 10 16 0.01 0.25
10:55 pm 22:55 Clear with Drizzle 67 19.5 66 19 97 97 SSE 15 24 29.90 1012 10 16 0.01 0.25
11:15 pm 23:15 Clear 67 19.5 66 19 97 97 S 8 13 29.91 1013 10 16 0.00 0.00
11:35 pm 23:35 Clear 67 19.5 66 19 97 97 S 9 15 29.91 1013 10 16 0.00 0.00
11:55 pm 23:55 Clear 68 19.8 66 19.1 96 96 SSW 9 15 29.93 1013 10 16 0.00 0.00

Powered by AerisWeather